Погода в Ноксвилле

США     35°57′38″N   83°55′15″W
темп.,
°C
ветер,
м/с
пор.,
м/с
влажн.,
%
обл.,
%
осадки,
мм/ч
давл.,
гПа
погр.,
м
31 июля, сб
сб3123:00+25ссв24727 0.0 1016143
02:00+23с247552 0.0 1015117
05:00+22ссв1380100 0.0 101596
08:00+22св1378100 0.0 1016178
11:00+28ссв115498 0.0 1016734
14:00+33з123471 0.0 10151764
17:00+35з332799 0.0 10132432
20:00+29ссз3641100 0.0 1013356
1 августа, вс
вс123:00+25св236479 0.0 1014156
02:00+23с127390 0.0 101489
05:00+22ссв00765 0.0 101427
08:00+20юз2493100 1.1 1015167
11:00+20юз2698100 4.8 1016356
14:00+22зюз2594100 5.9 1015407
17:00+27з246514 0.1 1014981
20:00+23ссв239115 1.8 101390
2 августа, пн
пн223:00+21ссв11945 0.1 101511
02:00+19ссв119548 0.1 101616
05:00+18ссв2396100 0.0 101567
08:00+19ссв1393100 0.0 1016114
11:00+25всв22591 0.0 1016771
14:00+30св1239100 0.0 10141947
17:00+29ссз2242100 0.0 10131346
20:00+25ссв4963100 0.0 1012436
3 августа, вт
вт323:00+22ссв257299 0.0 1014187
02:00+20ссв25807 0.0 1013142
05:00+19ссв13857 0.0 101296
08:00+20св127835 0.0 1014138
11:00+27ссз11515 0.0 1014787
14:00+32зюз01385 0.0 10131953
17:00+31ссз333496 0.0 10111933
20:00+24св37641 0.2 1013254
4 августа, ср
ср423:00+21ссв25770 0.2 1014169
02:00+18св24961 1.1 1015116
05:00+18св11974 0.9 101651
08:00+18всв019595 2.0 1018123
11:00+22с117868 0.5 1019650
14:00+29с224814 0.5 10171548
17:00+25юз2570100 0.4 1016129
20:00+21ссв358994 5.1 1017129